Time,TemperatureF,DewpointF,PressureIn,WindDirection,WindDirectionDegrees,WindSpeedMPH,WindSpeedGustMPH,Humidity,HourlyPrecipIn,Conditions,Clouds,dailyrainin,SoftwareType,DateUTC
2013-05-20 00:03:00,73.0,63.0,29.92,South,180,4.0,4.0,71,0.00,,,0.00,,2013-05-20 04:03:00,
2013-05-20 00:13:00,73.0,63.0,29.91,SSW,202,0.0,4.0,72,0.00,,,0.00,,2013-05-20 04:13:00,
2013-05-20 00:23:00,73.0,63.0,29.91,SSW,202,0.0,4.0,72,0.00,,,0.00,,2013-05-20 04:23:00,
2013-05-20 00:33:00,73.0,63.0,29.91,SSE,157,1.0,3.0,72,0.00,,,0.00,,2013-05-20 04:33:00,
2013-05-20 00:42:00,73.0,63.0,29.91,SSE,157,1.0,3.0,72,0.00,,,0.00,,2013-05-20 04:42:00,
2013-05-20 00:53:00,73.0,63.0,29.90,South,180,1.0,1.0,72,0.00,,,0.00,,2013-05-20 04:53:00,
2013-05-20 01:02:00,73.0,64.0,29.90,SE,135,1.0,3.0,73,0.00,,,0.00,,2013-05-20 05:02:00,
2013-05-20 01:12:00,73.0,64.0,29.91,South,180,0.0,0.0,73,0.00,,,0.00,,2013-05-20 05:12:00,
2013-05-20 01:22:00,73.0,64.0,29.91,South,180,0.0,0.0,73,0.00,,,0.00,,2013-05-20 05:22:00,
2013-05-20 01:32:00,73.0,64.0,29.91,ESE,112,0.0,0.0,73,0.00,,,0.00,,2013-05-20 05:32:00,
2013-05-20 01:42:00,73.0,64.0,29.91,ESE,112,0.0,0.0,73,0.00,,,0.00,,2013-05-20 05:42:00,
2013-05-20 01:52:00,73.0,64.0,29.90,ESE,112,0.0,0.0,73,0.00,,,0.00,,2013-05-20 05:52:00,
2013-05-20 02:01:00,73.0,64.0,29.90,ENE,67,0.0,1.0,74,0.00,,,0.00,,2013-05-20 06:01:00,
2013-05-20 02:11:00,73.0,64.0,29.91,SSE,157,0.0,0.0,74,0.00,,,0.00,,2013-05-20 06:11:00,
2013-05-20 02:21:00,73.0,64.0,29.91,SSE,157,0.0,0.0,74,0.00,,,0.00,,2013-05-20 06:21:00,
2013-05-20 02:32:00,73.0,64.0,29.90,SE,135,0.0,0.0,74,0.00,,,0.00,,2013-05-20 06:32:00,
2013-05-20 02:42:00,73.0,64.0,29.90,SE,135,0.0,0.0,74,0.00,,,0.00,,2013-05-20 06:42:00,
2013-05-20 02:52:00,72.0,63.0,29.90,SSE,157,0.0,0.0,74,0.00,,,0.00,,2013-05-20 06:52:00,
2013-05-20 03:02:00,72.0,64.0,29.90,South,180,6.0,6.0,75,0.00,,,0.00,,2013-05-20 07:02:00,
2013-05-20 03:12:00,72.0,64.0,29.90,South,180,6.0,6.0,75,0.00,,,0.00,,2013-05-20 07:12:00,
2013-05-20 03:21:00,72.0,64.0,29.90,SE,135,0.0,0.0,75,0.00,,,0.00,,2013-05-20 07:21:00,
2013-05-20 03:32:00,72.0,64.0,29.90,WSW,247,0.0,0.0,76,0.00,,,0.00,,2013-05-20 07:32:00,
2013-05-20 03:42:00,72.0,64.0,29.90,WSW,247,0.0,0.0,76,0.00,,,0.00,,2013-05-20 07:42:00,
2013-05-20 03:52:00,71.0,63.0,29.90,East,90,0.0,2.0,76,0.00,,,0.00,,2013-05-20 07:52:00,
2013-05-20 04:01:00,71.0,63.0,29.90,SSE,157,0.0,0.0,77,0.00,,,0.00,,2013-05-20 08:01:00,
2013-05-20 04:11:00,71.0,63.0,29.90,SSE,157,0.0,0.0,77,0.00,,,0.00,,2013-05-20 08:11:00,
2013-05-20 04:21:00,71.0,64.0,29.90,WSW,247,0.0,0.0,78,0.00,,,0.00,,2013-05-20 08:21:00,
2013-05-20 04:32:00,70.0,63.0,29.90,ESE,112,0.0,0.0,78,0.00,,,0.00,,2013-05-20 08:32:00,
2013-05-20 04:42:00,70.0,63.0,29.90,ESE,112,0.0,0.0,78,0.00,,,0.00,,2013-05-20 08:42:00,
2013-05-20 04:52:00,70.0,63.0,29.90,ENE,67,0.0,0.0,79,0.00,,,0.00,,2013-05-20 08:52:00,
2013-05-20 05:02:00,70.0,64.0,29.90,SSE,157,0.0,1.0,80,0.00,,,0.00,,2013-05-20 09:02:00,
2013-05-20 05:12:00,70.0,64.0,29.90,SSE,157,0.0,1.0,80,0.00,,,0.00,,2013-05-20 09:12:00,
2013-05-20 05:21:00,69.0,63.0,29.89,SSE,157,0.0,0.0,82,0.00,,,0.00,,2013-05-20 09:21:00,
2013-05-20 05:32:00,69.0,64.0,29.87,South,180,3.0,3.0,83,0.00,,,0.00,,2013-05-20 09:32:00,
2013-05-20 05:43:00,69.0,64.0,29.87,South,180,3.0,3.0,83,0.00,,,0.00,,2013-05-20 09:43:00,
2013-05-20 05:53:00,69.0,64.0,29.87,South,180,0.0,3.0,83,0.00,,,0.00,,2013-05-20 09:53:00,
2013-05-20 06:03:00,69.0,64.0,29.88,West,270,0.0,0.0,83,0.00,,,0.00,,2013-05-20 10:03:00,
2013-05-20 06:12:00,69.0,64.0,29.88,West,270,0.0,0.0,83,0.00,,,0.00,,2013-05-20 10:12:00,
2013-05-20 06:22:00,69.0,64.0,29.88,South,180,1.0,1.0,84,0.00,,,0.00,,2013-05-20 10:22:00,
2013-05-20 06:33:00,69.0,64.0,29.89,SSW,202,0.0,1.0,85,0.00,,,0.00,,2013-05-20 10:33:00,
2013-05-20 06:42:00,69.0,64.0,29.89,SSW,202,0.0,1.0,85,0.00,,,0.00,,2013-05-20 10:42:00,
2013-05-20 06:52:00,69.0,64.0,29.90,West,270,0.0,0.0,85,0.00,,,0.00,,2013-05-20 10:52:00,
2013-05-20 07:02:00,69.0,65.0,29.92,South,180,0.0,0.0,86,0.00,,,0.00,,2013-05-20 11:02:00,
2013-05-20 07:12:00,69.0,65.0,29.92,South,180,0.0,0.0,86,0.00,,,0.00,,2013-05-20 11:12:00,
2013-05-20 07:21:00,69.0,65.0,29.92,SW,225,0.0,0.0,86,0.00,,,0.00,,2013-05-20 11:21:00,
2013-05-20 07:32:00,70.0,66.0,29.92,South,180,0.0,0.0,86,0.00,,,0.00,,2013-05-20 11:32:00,
2013-05-20 07:42:00,70.0,66.0,29.92,South,180,0.0,0.0,86,0.00,,,0.00,,2013-05-20 11:42:00,
2013-05-20 07:51:00,70.0,66.0,29.93,SE,135,0.0,0.0,87,0.00,,,0.00,,2013-05-20 11:51:00,
2013-05-20 08:01:00,70.0,66.0,29.93,WSW,247,0.0,1.0,87,0.00,,,0.00,,2013-05-20 12:01:00,
2013-05-20 08:12:00,70.0,66.0,29.93,WSW,247,0.0,1.0,87,0.00,,,0.00,,2013-05-20 12:12:00,
2013-05-20 08:21:00,71.0,67.0,29.94,West,270,0.0,2.0,87,0.00,,,0.00,,2013-05-20 12:21:00,
2013-05-20 08:32:00,71.0,67.0,29.94,South,180,2.0,3.0,87,0.00,,,0.00,,2013-05-20 12:32:00,
2013-05-20 08:41:00,71.0,67.0,29.94,South,180,2.0,3.0,87,0.00,,,0.00,,2013-05-20 12:41:00,
2013-05-20 08:52:00,72.0,68.0,29.94,SSE,157,0.0,0.0,86,0.00,,,0.00,,2013-05-20 12:52:00,
2013-05-20 09:01:00,72.0,67.0,29.94,ESE,112,3.0,3.0,85,0.00,,,0.00,,2013-05-20 13:01:00,
2013-05-20 09:11:00,72.0,67.0,29.94,ESE,112,3.0,3.0,85,0.00,,,0.00,,2013-05-20 13:11:00,
2013-05-20 09:22:00,73.0,68.0,29.94,SW,220,3.0,4.0,84,0.00,,,0.00,,2013-05-20 13:22:00,
2013-05-20 09:32:00,74.0,68.0,29.93,SW,225,0.0,3.0,83,0.00,,,0.00,,2013-05-20 13:32:00,
2013-05-20 09:41:00,74.0,68.0,29.93,SSW,202,3.0,6.0,82,0.00,,,0.00,,2013-05-20 13:41:00,
2013-05-20 09:52:00,74.0,68.0,29.93,SSW,202,3.0,6.0,82,0.00,,,0.00,,2013-05-20 13:52:00,
2013-05-20 10:01:00,75.0,69.0,29.93,West,270,3.0,3.0,82,0.00,,,0.00,,2013-05-20 14:01:00,
2013-05-20 10:11:00,75.0,69.0,29.93,West,270,3.0,3.0,82,0.00,,,0.00,,2013-05-20 14:11:00,
2013-05-20 10:22:00,76.0,70.0,29.93,WSW,247,3.0,3.0,81,0.00,,,0.00,,2013-05-20 14:22:00,
2013-05-20 10:32:00,76.0,69.0,29.92,SSE,157,0.0,4.0,79,0.00,,,0.00,,2013-05-20 14:32:00,
2013-05-20 10:42:00,76.0,69.0,29.92,SSE,157,0.0,4.0,79,0.00,,,0.00,,2013-05-20 14:42:00,
2013-05-20 10:52:00,76.0,69.0,29.90,SW,225,3.0,7.0,78,0.00,,,0.00,,2013-05-20 14:52:00,
2013-05-20 11:01:00,76.0,69.0,29.90,SW,225,3.0,3.0,78,0.00,,,0.00,,2013-05-20 15:01:00,
2013-05-20 11:11:00,76.0,69.0,29.90,SW,225,3.0,3.0,78,0.00,,,0.00,,2013-05-20 15:11:00,
2013-05-20 11:21:00,78.0,69.0,29.92,South,180,6.0,7.0,74,0.00,,,0.00,,2013-05-20 15:21:00,
2013-05-20 11:33:00,77.0,68.0,29.92,North,3,2.0,6.0,74,0.00,,,0.00,,2013-05-20 15:33:00,
2013-05-20 11:42:00,76.0,67.0,29.93,SSW,202,0.0,8.0,74,0.00,,,0.00,,2013-05-20 15:42:00,
2013-05-20 11:53:00,76.0,67.0,29.93,SSW,202,0.0,8.0,74,0.00,,,0.00,,2013-05-20 15:53:00,
2013-05-20 12:03:00,76.0,67.0,29.94,WNW,292,3.0,3.0,74,0.00,,,0.00,,2013-05-20 16:03:00,
2013-05-20 12:13:00,76.0,67.0,29.94,WNW,292,3.0,3.0,74,0.00,,,0.00,,2013-05-20 16:13:00,
2013-05-20 12:23:00,75.0,65.0,29.93,SSW,208,3.0,7.0,72,0.00,,,0.00,,2013-05-20 16:23:00,
2013-05-20 12:33:00,76.0,66.0,29.93,SE,135,3.0,3.0,71,0.00,,,0.00,,2013-05-20 16:33:00,
2013-05-20 12:42:00,76.0,66.0,29.93,SE,135,3.0,3.0,71,0.00,,,0.00,,2013-05-20 16:42:00,
2013-05-20 12:53:00,75.0,64.0,29.91,SSE,162,4.0,4.0,68,0.00,,,0.00,,2013-05-20 16:53:00,
2013-05-20 13:02:00,75.0,64.0,29.92,SSE,157,3.0,6.0,69,0.00,,,0.00,,2013-05-20 17:02:00,
2013-05-20 13:12:00,76.0,64.0,29.92,WSW,247,6.0,6.0,67,0.00,,,0.00,,2013-05-20 17:12:00,
2013-05-20 13:22:00,76.0,64.0,29.92,WSW,247,6.0,6.0,67,0.00,,,0.00,,2013-05-20 17:22:00,
2013-05-20 13:33:00,76.0,63.0,29.90,NE,41,2.0,6.0,65,0.00,,,0.00,,2013-05-20 17:33:00,
2013-05-20 13:45:00,76.0,63.0,29.90,NE,41,2.0,6.0,65,0.00,,,0.00,,2013-05-20 17:45:00,
2013-05-20 13:53:00,76.0,63.0,29.90,NE,45,0.0,6.0,65,0.00,,,0.00,,2013-05-20 17:53:00,
2013-05-20 14:02:00,76.0,62.0,29.90,West,270,7.0,7.0,63,0.00,,,0.00,,2013-05-20 18:02:00,
2013-05-20 14:12:00,76.0,62.0,29.89,WNW,292,1.0,1.0,63,0.00,,,0.00,,2013-05-20 18:12:00,
2013-05-20 14:23:00,76.0,62.0,29.89,WNW,292,1.0,1.0,63,0.00,,,0.00,,2013-05-20 18:23:00,
2013-05-20 14:32:00,76.0,62.0,29.90,SE,135,0.0,7.0,63,0.00,,,0.00,,2013-05-20 18:32:00,
2013-05-20 14:42:00,76.0,62.0,29.90,SE,135,0.0,7.0,63,0.00,,,0.00,,2013-05-20 18:42:00,
2013-05-20 14:55:00,76.0,62.0,29.90,SE,135,0.0,6.0,62,0.00,,,0.00,,2013-05-20 18:55:00,
2013-05-20 15:04:00,76.0,62.0,29.90,SSE,152,5.0,7.0,63,0.00,,,0.00,,2013-05-20 19:04:00,
2013-05-20 15:11:00,78.0,63.0,29.88,WSW,247,1.0,6.0,61,0.00,,,0.00,,2013-05-20 19:11:00,
2013-05-20 15:21:00,78.0,63.0,29.88,WSW,247,1.0,6.0,61,0.00,,,0.00,,2013-05-20 19:21:00,
2013-05-20 15:32:00,79.0,64.0,29.88,North,-999,-999.0,-999.0,60,0.00,,,0.00,,2013-05-20 19:32:00,
2013-05-20 15:42:00,80.0,64.0,29.88,WSW,247,5.0,8.0,59,0.00,,,0.00,,2013-05-20 19:42:00,
2013-05-20 15:52:00,80.0,64.0,29.88,WSW,247,5.0,8.0,59,0.00,,,0.00,,2013-05-20 19:52:00,
2013-05-20 16:01:00,80.0,64.0,29.88,WSW,247,5.0,7.0,59,0.00,,,0.00,,2013-05-20 20:01:00,
2013-05-20 16:12:00,81.0,65.0,29.88,SSW,212,1.0,3.0,59,0.00,,,0.00,,2013-05-20 20:12:00,
2013-05-20 16:21:00,81.0,65.0,29.88,SSW,212,1.0,3.0,59,0.00,,,0.00,,2013-05-20 20:21:00,
2013-05-20 16:32:00,81.0,65.0,29.88,WNW,292,1.0,5.0,59,0.00,,,0.00,,2013-05-20 20:32:00,
2013-05-20 16:42:00,81.0,66.0,29.87,SSE,157,0.0,0.0,60,0.00,,,0.00,,2013-05-20 20:42:00,
2013-05-20 16:52:00,81.0,66.0,29.87,SSE,157,0.0,0.0,60,0.00,,,0.00,,2013-05-20 20:52:00,
2013-05-20 17:01:00,81.0,67.0,29.87,East,90,0.0,0.0,62,0.00,,,0.00,,2013-05-20 21:01:00,
2013-05-20 17:11:00,82.0,68.0,29.87,West,270,4.0,4.0,63,0.00,,,0.00,,2013-05-20 21:11:00,
2013-05-20 17:21:00,82.0,68.0,29.87,West,270,4.0,4.0,63,0.00,,,0.00,,2013-05-20 21:21:00,
2013-05-20 17:33:00,82.0,68.0,29.88,West,265,4.0,7.0,62,0.00,,,0.00,,2013-05-20 21:33:00,
2013-05-20 17:43:00,83.0,68.0,29.89,SW,225,5.0,5.0,60,0.00,,,0.00,,2013-05-20 21:43:00,
2013-05-20 17:53:00,83.0,68.0,29.89,SW,225,5.0,5.0,60,0.00,,,0.00,,2013-05-20 21:53:00,
2013-05-20 18:02:00,83.0,68.0,29.90,WSW,247,7.0,7.0,60,0.00,,,0.00,,2013-05-20 22:02:00,
2013-05-20 18:12:00,82.0,67.0,29.89,SSW,202,1.0,3.0,61,0.00,,,0.00,,2013-05-20 22:12:00,
2013-05-20 18:23:00,82.0,67.0,29.89,SSW,202,1.0,3.0,61,0.00,,,0.00,,2013-05-20 22:23:00,
2013-05-20 18:33:00,82.0,67.0,29.88,WSW,247,8.0,8.0,61,0.00,,,0.00,,2013-05-20 22:33:00,
2013-05-20 18:42:00,82.0,67.0,29.88,WSW,247,8.0,8.0,61,0.00,,,0.00,,2013-05-20 22:42:00,
2013-05-20 18:52:00,82.0,67.0,29.87,East,90,0.0,2.0,61,0.00,,,0.00,,2013-05-20 22:52:00,
2013-05-20 19:03:00,82.0,67.0,29.87,SSE,157,0.0,0.0,61,0.00,,,0.00,,2013-05-20 23:03:00,
2013-05-20 19:12:00,82.0,67.0,29.87,SSE,149,5.0,7.0,61,0.00,,,0.00,,2013-05-20 23:12:00,
2013-05-20 19:22:00,82.0,67.0,29.87,SSE,149,5.0,7.0,61,0.00,,,0.00,,2013-05-20 23:22:00,
2013-05-20 19:32:00,82.0,67.0,29.86,SW,225,4.0,7.0,60,0.00,,,0.00,,2013-05-20 23:32:00,
2013-05-20 19:42:00,82.0,67.0,29.86,SW,225,4.0,7.0,60,0.00,,,0.00,,2013-05-20 23:42:00,
2013-05-20 19:53:00,82.0,67.0,29.86,WSW,247,1.0,6.0,61,0.00,,,0.00,,2013-05-20 23:53:00,
2013-05-20 20:01:00,82.0,67.0,29.86,SE,135,8.0,8.0,61,0.00,,,0.00,,2013-05-21 00:01:00,
2013-05-20 20:11:00,82.0,67.0,29.86,SE,135,8.0,8.0,61,0.00,,,0.00,,2013-05-21 00:11:00,
2013-05-20 20:21:00,81.0,66.0,29.85,WSW,247,1.0,6.0,61,0.00,,,0.00,,2013-05-21 00:21:00,
2013-05-20 20:32:00,81.0,66.0,29.85,South,180,0.0,1.0,61,0.00,,,0.00,,2013-05-21 00:32:00,
2013-05-20 20:42:00,80.0,66.0,29.85,WSW,247,0.0,0.0,62,0.00,,,0.00,,2013-05-21 00:42:00,
2013-05-20 20:52:00,80.0,66.0,29.85,WSW,247,0.0,0.0,62,0.00,,,0.00,,2013-05-21 00:52:00,
2013-05-20 21:01:00,80.0,66.0,29.84,SSE,157,0.0,0.0,63,0.00,,,0.00,,2013-05-21 01:01:00,
2013-05-20 21:11:00,80.0,66.0,29.84,SSE,157,0.0,0.0,63,0.00,,,0.00,,2013-05-21 01:11:00,
2013-05-20 21:22:00,79.0,66.0,29.85,SE,135,0.0,1.0,64,0.00,,,0.00,,2013-05-21 01:22:00,
2013-05-20 21:32:00,79.0,66.0,29.85,South,180,0.0,0.0,64,0.00,,,0.00,,2013-05-21 01:32:00,
2013-05-20 21:42:00,78.0,65.0,29.85,SSE,157,0.0,0.0,64,0.00,,,0.00,,2013-05-21 01:42:00,
2013-05-20 21:53:00,78.0,65.0,29.85,SSE,157,0.0,0.0,64,0.00,,,0.00,,2013-05-21 01:53:00,
2013-05-20 22:02:00,78.0,65.0,29.86,SSE,157,0.0,0.0,65,0.00,,,0.00,,2013-05-21 02:02:00,
2013-05-20 22:11:00,77.0,65.0,29.85,SSE,157,0.0,0.0,67,0.00,,,0.00,,2013-05-21 02:11:00,
2013-05-20 22:21:00,77.0,65.0,29.85,SSE,157,0.0,0.0,67,0.00,,,0.00,,2013-05-21 02:21:00,
2013-05-20 22:32:00,76.0,65.0,29.85,SSE,157,0.0,0.0,68,0.00,,,0.00,,2013-05-21 02:32:00,
2013-05-20 22:42:00,75.0,64.0,29.87,SSW,202,0.0,0.0,69,0.00,,,0.00,,2013-05-21 02:42:00,
2013-05-20 22:52:00,75.0,64.0,29.87,SSW,202,0.0,0.0,69,0.00,,,0.00,,2013-05-21 02:52:00,
2013-05-20 23:02:00,75.0,64.0,29.87,SE,135,0.0,0.0,69,0.00,,,0.00,,2013-05-21 03:02:00,
2013-05-20 23:11:00,75.0,65.0,29.85,ESE,112,0.0,0.0,71,0.00,,,0.00,,2013-05-21 03:11:00,
2013-05-20 23:21:00,75.0,65.0,29.85,ESE,112,0.0,0.0,71,0.00,,,0.00,,2013-05-21 03:21:00,
2013-05-20 23:33:00,75.0,65.0,29.86,WSW,247,0.0,0.0,71,0.00,,,0.00,,2013-05-21 03:33:00,
2013-05-20 23:43:00,75.0,65.0,29.86,South,180,1.0,1.0,72,0.00,,,0.00,,2013-05-21 03:43:00,
2013-05-20 23:53:00,75.0,65.0,29.86,South,180,1.0,1.0,72,0.00,,,0.00,,2013-05-21 03:53:00,